User: anonymous   Login
Location: Balls_Creek
(35.6670°N, 81.1170°W)
Time: 01:08:59
(UTC-05:00)
Language:

Iridium 42 - Orbit

View from above orbital plane
View from above orbital plane
View from above satellite
View from above satellite

Ground track
Ground track

The orbit data is extracted from the following two-line orbital elements,

1 25077U 97077A   14332.36884525  .00000307  00000-0  10251-3 0   549
2 25077 086.3985 051.4854 0002321 106.7924 253.3527 14.34281646888613
Epoch (UTC): 28 November 2014 08:51:08
Eccentricity: 0.0002321
inclination: 86.3985°
perigee height: 776 km
apogee height: 779 km
right ascension of ascending node: 51.4854°
argument of perigee: 106.7924°
revolutions per day: 14.34281646
mean anomaly at epoch: 253.3527°
orbit number at epoch: 88861

The dashed part of the orbit path shows where the satellite is in the earth's shadow,  

DLR